When you browse on this site, cookies collect data to enhance your experience and personalize the content and advertising you see.
Visit our Privacy Policy to learn more. By continuing to use the site, you agree to this use of cookies and data.
  • In Sweden
  • List of Countries
  • For 7 days
  • Water Temperature
  • Weather Map
  • Weather Widgets
  • user-avatar
    Login

    Hourly Weather Amman

    Today, 27 May, Wednesday

    Time Temperature Precipitation Wind Pressure Humidity
    00:00 +22°C° 0 mm 1 mps 690 mmHg 35%
    01:00 +22°C° 0 mm 1 mps 690 mmHg 36%
    02:00 +21°C° 0 mm 1 mps 690 mmHg 37%
    03:00 +21°C° 0 mm 1 mps 690 mmHg 38%
    04:00 +20°C° 0 mm 1 mps 690 mmHg 39%
    05:00 +20°C° 0 mm 1 mps 690 mmHg 40%
    06:00 +22°C° 0 mm 1 mps 691 mmHg 36%
    07:00 +23°C° 0 mm 1 mps 691 mmHg 32%
    08:00 +25°C° 0 mm 2 mps 691 mmHg 28%
    09:00 +26°C° 0 mm 2 mps 691 mmHg 26%
    10:00 +28°C° 0 mm 2 mps 692 mmHg 24%
    11:00 +29°C° 0 mm 3 mps 692 mmHg 22%
    12:00 +30°C° 0 mm 4 mps 691 mmHg 22%
    13:00 +30°C° 0 mm 5 mps 691 mmHg 22%
    14:00 +32°C° 0 mm 7 mps 691 mmHg 22%
    15:00 +29°C° 0 mm 7 mps 691 mmHg 25%
    16:00 +28°C° 0 mm 7 mps 691 mmHg 28%
    17:00 +26°C° 0 mm 7 mps 690 mmHg 31%
    18:00 +24°C° 0 mm 6 mps 691 mmHg 35%
    19:00 +22°C° 0 mm 5 mps 691 mmHg 39%
    20:00 +20°C° 0 mm 4 mps 691 mmHg 43%
    21:00 +19°C° 0 mm 4 mps 691 mmHg 46%
    22:00 +19°C° 0 mm 4 mps 691 mmHg 48%
    23:00 +18°C° 0 mm 4 mps 691 mmHg 51%

    Tomorrow, 28 May, Thursday

    Time Temperature Precipitation Wind Pressure Humidity
    00:00 +17°C° 0 mm 4 mps 690 mmHg 56%
    01:00 +16°C° 0 mm 3 mps 690 mmHg 60%
    02:00 +16°C° 0 mm 3 mps 690 mmHg 64%
    03:00 +14°C° 0 mm 3 mps 690 mmHg 69%
    04:00 +14°C° 0 mm 3 mps 690 mmHg 75%
    05:00 +13°C° 0 mm 4 mps 690 mmHg 80%
    06:00 +14°C° 0 mm 4 mps 691 mmHg 75%
    07:00 +16°C° 0 mm 5 mps 691 mmHg 70%
    08:00 +17°C° 0 mm 5 mps 691 mmHg 66%
    09:00 +19°C° 0 mm 6 mps 692 mmHg 58%
    10:00 +21°C° 0 mm 6 mps 692 mmHg 50%
    11:00 +22°C° 0 mm 6 mps 692 mmHg 42%
    12:00 +23°C° 0 mm 6 mps 692 mmHg 38%
    13:00 +24°C° 0 mm 6 mps 692 mmHg 34%
    14:00 +26°C° 0 mm 7 mps 691 mmHg 30%
    15:00 +24°C° 0 mm 7 mps 691 mmHg 31%
    16:00 +23°C° 0 mm 7 mps 691 mmHg 33%
    17:00 +22°C° 0 mm 7 mps 691 mmHg 34%
    18:00 +21°C° 0 mm 6 mps 691 mmHg 40%
    19:00 +19°C° 0 mm 5 mps 691 mmHg 45%
    20:00 +18°C° 0 mm 4 mps 691 mmHg 51%
    21:00 +17°C° 0 mm 4 mps 691 mmHg 56%
    22:00 +15°C° 0 mm 4 mps 691 mmHg 62%
    23:00 +14°C° 0 mm 4 mps 691 mmHg 67%

    Day after tomorrow, 29 May, Friday

    Time Temperature Precipitation Wind Pressure Humidity
    00:00 +14°C° 0 mm 4 mps 691 mmHg 72%
    01:00 +13°C° 0 mm 4 mps 691 mmHg 76%
    02:00 +13°C° 0 mm 4 mps 690 mmHg 81%
    03:00 +13°C° 0 mm 4 mps 691 mmHg 81%
    04:00 +12°C° 0 mm 3 mps 691 mmHg 82%
    05:00 +12°C° 0 mm 3 mps 691 mmHg 83%
    06:00 +13°C° 0 mm 4 mps 691 mmHg 74%
    07:00 +15°C° 0 mm 4 mps 692 mmHg 64%
    08:00 +16°C° 0 mm 5 mps 692 mmHg 55%
    09:00 +17°C° 0 mm 5 mps 692 mmHg 49%
    10:00 +19°C° 0 mm 5 mps 692 mmHg 43%
    11:00 +21°C° 0 mm 5 mps 693 mmHg 37%
    12:00 +21°C° 0 mm 6 mps 693 mmHg 34%
    13:00 +22°C° 0 mm 6 mps 693 mmHg 31%
    14:00 +23°C° 0 mm 7 mps 693 mmHg 28%
    15:00 +22°C° 0 mm 7 mps 692 mmHg 32%
    16:00 +21°C° 0 mm 7 mps 692 mmHg 36%
    17:00 +20°C° 0 mm 7 mps 692 mmHg 40%
    18:00 +19°C° 0 mm 6 mps 692 mmHg 47%
    19:00 +18°C° 0 mm 4 mps 692 mmHg 54%
    20:00 +16°C° 0 mm 3 mps 692 mmHg 61%
    21:00 +16°C° 0 mm 3 mps 692 mmHg 63%
    22:00 +15°C° 0 mm 2 mps 692 mmHg 66%
    23:00 +15°C° 0 mm 2 mps 692 mmHg 69%

    30 May, Saturday

    Time Temperature Precipitation Wind Pressure Humidity
    00:00 +14°C° 0 mm 2 mps 692 mmHg 72%
    01:00 +13°C° 0 mm 2 mps 691 mmHg 74%
    02:00 +13°C° 0 mm 2 mps 691 mmHg 77%
    03:00 +13°C° 0 mm 1 mps 691 mmHg 79%
    04:00 +12°C° 0 mm 1 mps 691 mmHg 81%
    05:00 +11°C° 0 mm 0 mps 691 mmHg 83%
    06:00 +13°C° 0 mm 0 mps 692 mmHg 71%
    07:00 +15°C° 0 mm 0 mps 692 mmHg 58%
    08:00 +16°C° 0 mm 0 mps 693 mmHg 46%
    09:00 +20°C° 0 mm 1 mps 693 mmHg 38%
    10:00 +22°C° 0 mm 1 mps 693 mmHg 30%
    11:00 +24°C° 0 mm 2 mps 693 mmHg 22%
    12:00 +25°C° 0 mm 2 mps 693 mmHg 20%
    13:00 +26°C° 0 mm 2 mps 693 mmHg 17%
    14:00 +27°C° 0 mm 2 mps 692 mmHg 15%
    15:00 +26°C° 0 mm 3 mps 692 mmHg 18%
    16:00 +26°C° 0 mm 4 mps 692 mmHg 21%
    17:00 +24°C° 0 mm 6 mps 692 mmHg 24%
    18:00 +22°C° 0 mm 5 mps 692 mmHg 32%
    19:00 +21°C° 0 mm 4 mps 692 mmHg 40%
    20:00 +19°C° 0 mm 3 mps 692 mmHg 48%
    21:00 +18°C° 0 mm 3 mps 692 mmHg 50%
    22:00 +18°C° 0 mm 2 mps 692 mmHg 52%
    23:00 +17°C° 0 mm 2 mps 692 mmHg 54%

    31 May, Sunday

    Time Temperature Precipitation Wind Pressure Humidity
    00:00 +17°C° 0 mm 2 mps 691 mmHg 53%
    01:00 +16°C° 0 mm 2 mps 691 mmHg 52%
    02:00 +16°C° 0 mm 2 mps 691 mmHg 51%
    03:00 +15°C° 0 mm 2 mps 691 mmHg 51%
    04:00 +15°C° 0 mm 1 mps 691 mmHg 51%
    05:00 +14°C° 0 mm 1 mps 691 mmHg 51%
    06:00 +16°C° 0 mm 1 mps 691 mmHg 43%
    07:00 +19°C° 0 mm 1 mps 692 mmHg 35%
    08:00 +21°C° 0 mm 1 mps 692 mmHg 27%
    09:00 +21°C° 0 mm 2 mps 692 mmHg 24%
    10:00 +24°C° 0 mm 2 mps 692 mmHg 20%
    11:00 +26°C° 0 mm 3 mps 692 mmHg 17%
    12:00 +27°C° 0 mm 3 mps 692 mmHg 16%
    13:00 +28°C° 0 mm 3 mps 692 mmHg 15%
    14:00 +29°C° 0 mm 3 mps 691 mmHg 14%
    15:00 +28°C° 0 mm 4 mps 691 mmHg 18%
    16:00 +27°C° 0 mm 5 mps 691 mmHg 23%
    17:00 +27°C° 0 mm 5 mps 690 mmHg 27%
    18:00 +25°C° 0 mm 4 mps 690 mmHg 32%
    19:00 +22°C° 0 mm 4 mps 690 mmHg 37%
    20:00 +21°C° 0 mm 3 mps 690 mmHg 43%
    21:00 +20°C° 0 mm 3 mps 690 mmHg 40%
    22:00 +19°C° 0 mm 3 mps 691 mmHg 37%
    23:00 +18°C° 0 mm 3 mps 691 mmHg 34%

    1 June, Monday

    Time Temperature Precipitation Wind Pressure Humidity
    00:00 +18°C° 0 mm 2 mps 690 mmHg 41%
    01:00 +17°C° 0 mm 2 mps 690 mmHg 48%
    02:00 +16°C° 0 mm 1 mps 690 mmHg 54%
    03:00 +16°C° 0 mm 1 mps 690 mmHg 53%
    04:00 +16°C° 0 mm 1 mps 690 mmHg 51%
    05:00 +16°C° 0 mm 2 mps 690 mmHg 50%
    06:00 +17°C° 0 mm 2 mps 690 mmHg 43%
    07:00 +19°C° 0 mm 3 mps 690 mmHg 37%
    08:00 +21°C° 0 mm 3 mps 691 mmHg 30%
    09:00 +24°C° 0 mm 3 mps 691 mmHg 26%
    10:00 +26°C° 0 mm 3 mps 691 mmHg 22%
    11:00 +27°C° 0 mm 4 mps 691 mmHg 19%
    12:00 +28°C° 0 mm 4 mps 691 mmHg 17%
    13:00 +29°C° 0 mm 5 mps 691 mmHg 15%
    14:00 +32°C° 0 mm 6 mps 690 mmHg 13%
    15:00 +30°C° 0 mm 6 mps 690 mmHg 15%
    16:00 +29°C° 0 mm 5 mps 690 mmHg 16%
    17:00 +28°C° 0 mm 5 mps 690 mmHg 18%
    18:00 +27°C° 0 mm 4 mps 690 mmHg 21%
    19:00 +25°C° 0 mm 3 mps 690 mmHg 24%
    20:00 +24°C° 0 mm 2 mps 690 mmHg 27%
    21:00 +23°C° 0 mm 2 mps 690 mmHg 26%
    22:00 +23°C° 0 mm 2 mps 690 mmHg 26%
    23:00 +23°C° 0 mm 2 mps 690 mmHg 26%
    Show more